Weather History for EGPH - October, 2013

Change the Weather History Date:

Friday, October 18, 2013

  Actual Average Record
Temperature  
Mean Temperature 50 °F -  
Max Temperature 53 °F 51 °F 62 °F (1997)
Min Temperature 46 °F 39 °F 28 °F (2003)
Degree Days  
Heating Degree Days 16    
Moisture  
Dew Point 48 °F    
Average Humidity 92    
Maximum Humidity 100    
Minimum Humidity 82    
Precipitation  
Precipitation 0.00 in 0.08 in - ()
Sea Level Pressure  
Sea Level Pressure 29.91 in    
Wind  
Wind Speed 7 mph ()    
Max Wind Speed 13 mph    
Max Gust Speed -    
Visibility 6.0 miles    
Events Rain    
Averages and records for this station are not official NWS values.
T = Trace of Precipitation, MM = Missing Value Source: Averaged Metar Reports

Daily Weather History Graph

Daily Weather History Graph

Search for Another Location

Airport or City:

Trip Planner

Search our weather history database for the weather conditions in past years. The results will help you decide how hot, cold, wet, or windy it might be!

Date:

Astronomy

Oct. 18, 2013 Rise Set
Actual Time 7:50 AM BST 6:05 PM BST
Civil Twilight 7:13 AM BST 6:42 PM BST
Nautical Twilight 6:29 AM BST 7:25 PM BST
Astronomical Twilight 5:46 AM BST 8:08 PM BST
Moon 5:44 PM BST (10/18) 7:09 AM BST (10/18)
Length of Visible Light 11h 29m
Length of Day
10h 14m
Full, 100% of the Moon is Illuminated
Oct 18
Full
Oct 19
Full
Oct 27
Last Quarter
Nov 3
New
Nov 10
First Quarter

Hourly Weather History & Observations

Time (BST) Temp. Windchill Dew Point Humidity Pressure Visibility Wind Dir Wind Speed Gust Speed Precip Events Conditions
12:20 AM 48.2 °F - 48.2 °F 100% 29.98 in 6.2 mi East 4.6 mph - N/A   Mostly Cloudy
12:50 AM 48.2 °F - 48.2 °F 100% 29.98 in 6.2 mi ENE 5.8 mph - N/A   Overcast
1:20 AM 48.2 °F - 46.4 °F 93% 29.98 in 6.2 mi ENE 6.9 mph - N/A   Overcast
1:50 AM 48.2 °F - 46.4 °F 93% 29.98 in 6.2 mi ENE 6.9 mph - N/A   Overcast
2:20 AM 48.2 °F - 46.4 °F 93% 29.98 in 6.2 mi ENE 6.9 mph - N/A   Overcast
2:50 AM 48.2 °F - 46.4 °F 93% 30.01 in 6.2 mi ENE 5.8 mph - N/A   Overcast
3:20 AM 48.2 °F - 46.4 °F 93% 30.01 in 6.2 mi ENE 5.8 mph - N/A   Overcast
3:50 AM 48.2 °F - 46.4 °F 93% 29.98 in 6.2 mi ENE 6.9 mph - N/A   Mostly Cloudy
4:20 AM 48.2 °F - 46.4 °F 93% 29.98 in 6.2 mi ENE 6.9 mph - N/A   Mostly Cloudy
4:50 AM 46.4 °F 42.4 °F 46.4 °F 100% 29.98 in 6.2 mi ENE 8.1 mph - N/A   Mostly Cloudy
5:20 AM 46.4 °F 42.9 °F 46.4 °F 100% 29.98 in 6.2 mi East 6.9 mph - N/A   Mostly Cloudy
5:50 AM 48.2 °F - 44.6 °F 87% 29.98 in 6.2 mi East 8.1 mph - N/A   Overcast
6:20 AM 48.2 °F - 44.6 °F 87% 29.98 in 6.2 mi East 6.9 mph - N/A   Overcast
6:50 AM 48.2 °F - 44.6 °F 87% 29.98 in 6.2 mi East 8.1 mph - N/A   Overcast
7:20 AM 48.2 °F - 44.6 °F 87% 29.98 in 6.2 mi East 8.1 mph - N/A   Mostly Cloudy
7:50 AM 48.2 °F - 46.4 °F 93% 29.98 in 6.2 mi ESE 8.1 mph - N/A   Mostly Cloudy
8:20 AM 48.2 °F - 46.4 °F 93% 29.98 in 6.2 mi East 9.2 mph - N/A   Mostly Cloudy
8:50 AM 48.2 °F - 46.4 °F 93% 29.98 in 6.2 mi East 8.1 mph - N/A   Mostly Cloudy
9:20 AM 48.2 °F - 46.4 °F 93% 29.98 in 6.2 mi East 6.9 mph - N/A   Mostly Cloudy
9:50 AM 48.2 °F - 46.4 °F 93% 29.98 in 6.2 mi ENE 6.9 mph - N/A   Mostly Cloudy
10:20 AM 50.0 °F - 48.2 °F 94% 29.98 in 6.2 mi East 8.1 mph - N/A   Mostly Cloudy
10:50 AM 50.0 °F - 48.2 °F 94% 29.98 in 6.2 mi East 9.2 mph - N/A   Mostly Cloudy
11:20 AM 51.8 °F - 48.2 °F 88% 29.98 in 6.2 mi East 11.5 mph - N/A   Mostly Cloudy
11:50 AM 51.8 °F - 48.2 °F 88% 29.98 in 6.2 mi East 10.4 mph - N/A   Mostly Cloudy
12:20 PM 51.8 °F - 48.2 °F 88% 29.98 in 6.2 mi East 10.4 mph - N/A   Overcast
12:50 PM 53.6 °F - 48.2 °F 82% 29.95 in 6.2 mi East 9.2 mph - N/A   Mostly Cloudy
1:20 PM 53.6 °F - 48.2 °F 82% 29.95 in 6.2 mi East 9.2 mph - N/A   Mostly Cloudy
1:50 PM 51.8 °F - 48.2 °F 88% 29.92 in 6.2 mi East 10.4 mph - N/A   Overcast
2:20 PM 51.8 °F - 48.2 °F 88% 29.92 in 6.2 mi East 10.4 mph - N/A   Mostly Cloudy
2:50 PM 53.6 °F - 48.2 °F 82% 29.92 in 6.2 mi East 12.7 mph - N/A   Mostly Cloudy
3:20 PM 53.6 °F - 48.2 °F 82% 29.92 in 6.2 mi East 10.4 mph - N/A   Mostly Cloudy
3:50 PM 51.8 °F - 48.2 °F 88% 29.89 in 6.2 mi ENE 8.1 mph - N/A   Mostly Cloudy
4:20 PM 53.6 °F - 48.2 °F 82% 29.86 in 6.2 mi East 10.4 mph - N/A   Overcast
4:50 PM 53.6 °F - 48.2 °F 82% 29.86 in 6.2 mi East 9.2 mph - N/A   Overcast
5:20 PM 51.8 °F - 50.0 °F 94% 29.86 in 6.2 mi East 9.2 mph - N/A Rain Light Rain
5:50 PM 51.8 °F - 50.0 °F 94% 29.83 in 5.0 mi East 12.7 mph - N/A Rain Light Rain
6:20 PM 51.8 °F - 50.0 °F 94% 29.83 in 5.6 mi East 9.2 mph - N/A Rain Light Rain
6:50 PM 51.8 °F - 50.0 °F 94% 29.80 in 5.0 mi East 8.1 mph - N/A Rain Light Rain
7:20 PM 51.8 °F - 50.0 °F 94% 29.80 in 5.0 mi ENE 5.8 mph - N/A Rain Light Rain
7:50 PM 51.8 °F - 50.0 °F 94% 29.80 in 6.2 mi East 9.2 mph - N/A Rain Light Rain
8:20 PM 51.8 °F - 50.0 °F 94% 29.80 in 5.0 mi ENE 8.1 mph - N/A Rain Light Rain
8:50 PM 51.8 °F - 50.0 °F 94% 29.77 in 5.0 mi ENE 9.2 mph - N/A Rain Light Rain
9:20 PM 51.8 °F - 51.8 °F 100% 29.77 in 6.2 mi NE 8.1 mph - N/A Rain Light Rain
9:50 PM 51.8 °F - 51.8 °F 100% 29.77 in 6.2 mi ENE 8.1 mph - N/A Rain Light Rain
10:20 PM 51.8 °F - 51.8 °F 100% 29.74 in 6.2 mi ENE 10.4 mph - N/A   Mostly Cloudy
10:50 PM 51.8 °F - 51.8 °F 100% 29.74 in 6.2 mi ENE 9.2 mph - N/A   Overcast
11:20 PM 53.6 °F - 51.8 °F 94% 29.71 in 6.2 mi ENE 10.4 mph - N/A Rain Light Rain
11:50 PM 53.6 °F - 51.8 °F 94% 29.71 in 5.0 mi ENE 10.4 mph - N/A Rain Light Rain